Regional Weather Roundup
Issued by NWS

Home | Current Version | Previous Version | Graphics & Text | Print | Product List | Glossary On
Versions: 1 2 3 4 5 6 7 8 9 10 11 12 13 14 15 16 17 18 19 20 21 22 23 24 25 26 27 28 29 30 31 32 33 34 35 36 37 38 39 40 41 42 43 44 45 46 47 48 49 50
000
ASUS43 KLOT 311006
RWRIL

ILLINOIS REGIONAL WEATHER ROUNDUP
NATIONAL WEATHER SERVICE CHICAGO/ROMEOVILLE IL
400 AM CST SAT JAN 31 2015

NOTE: "FAIR" INDICATES FEW OR NO CLOUDS BELOW 12,000 FEET WITH NO
SIGNIFICANT WEATHER AND/OR OBSTRUCTIONS TO VISIBILITY.

* THESE STATIONS ARE NOT UNDER NWS QUALITY CONTROL. THEY ALSO MAY NOT
  REPORT WEATHER SUCH AS PRECIPITATION OR FOG.

ILZ001-002-007-009-015-016-024-311100-
NORTHWEST ILLINOIS

CITY           SKY/WX    TMP DP  RH WIND       PRES   REMARKS
MOLINE         PTCLDY    26  17  68 CALM      30.25F
STERLING*      CLEAR     21  18  86 CALM      30.26F
SAVANNA*       CLEAR     19  16  88 SE5       30.24F WCI  13
$$

ILZ003-004-008-010-011-017-018-311100-
NORTH CENTRAL ILLINOIS

CITY           SKY/WX    TMP DP  RH WIND       PRES   REMARKS
ROCKFORD       PTCLDY    20  15  81 S6        30.25F WCI  12
FREEPORT*      CLEAR     23  17  78 SW16      30.23F WCI  10
ROCHELLE*      CLEAR     19  16  86 S9        30.25F WCI   8
DE KALB*       CLEAR     18  15  86 S7        30.25F WCI   9
PERU*          CLEAR     23  19  85 SW7       30.28F WCI  15
$$

ILZ005-006-012>014-019>023-311100-
NORTHEAST ILLINOIS

CITY           SKY/WX    TMP DP  RH WIND       PRES   REMARKS
CHICAGO-OHARE  CLOUDY    26  18  71 SW6       30.26F WCI  19
CHICAGO-MIDWAY MOCLDY    28  21  75 SW8       30.28F WCI  20
AURORA         CLEAR     21  15  78 S5        30.27F WCI  15
LANSING*       CLOUDY    26  22  83 SW7       30.29F WCI  19
JOLIET*        PTCLDY    24  20  85 SW3       30.29F
WAUKEGAN       PTCLDY    20  15  81 SW6       30.24F WCI  12
DUPAGE AIRPORT CLOUDY    24  18  77 SW12      30.26F WCI  13
KANKAKEE*      PTCLDY    25  22  87 SW8       30.31F WCI  16
WHEELING       CLOUDY    25  17  72 SW7       30.28F WCI  17
MORRIS*        CLEAR     23  21  93 S6        30.28F WCI  15
ROMEOVILLE*    PTCLDY    24  20  85 SW6       30.28F WCI  17
NORTHERLY ISL    N/A     28  20  71 W6          N/A  WCI  22
$$

LMZ740>746-311100-
SOUTHERN LAKE MICHIGAN

STATION/POSITION SKY/WX   TEMP    WIND        PRES    VSBY  WAVE
                          AIR SEA DIR/SP/G                  HT/PER
                          (F)     (DEG/KT/KT) (MB)    (MI)  (FT/S)
WAUKEGAN HARBOR            24     200/ 10/ 12   N/A
HARRISON CRIB              28     200/ 13/ 18   N/A
BURNHAM HARBOR             28     200/  4/  9   N/A
CALUMET HARBOR             27     200/  8/ 11   N/A
MICHIGAN CITY              25     180/  8/ 10   N/A
$$

ILZ025>027-034>036-040-047-049-050-058-095>099-311100-
WEST-CENTRAL ILLINOIS

CITY           SKY/WX    TMP DP  RH WIND       PRES   REMARKS
QUINCY         MOCLDY    26  20  77 S9        30.29F WCI  17
GALESBURG*     MOCLDY    25  21  85 S5        30.27F WCI  19
MACOMB*        PTCLDY    26  21  80 SW7       30.31F WCI  19
JACKSONVILLE*  PTCLDY    30  22  73 S7        30.32F WCI  23
PITTSFIELD*    MOCLDY    30  22  72 S5        30.32F WCI  25
$$

ILZ028>032-037-038-041>044-048-051>054-059>061-311100-
CENTRAL ILLINOIS

CITY           SKY/WX    TMP DP  RH WIND       PRES   REMARKS
PONTIAC        CLEAR     26  23  87 SW5       30.31F WCI  20
BLOOMINGTON    CLOUDY    29  23  78 SW12      30.30F WCI  19
DECATUR        CLOUDY    28  22  78 SW9       30.32F WCI  19
PEORIA         PTCLDY    26  19  74 SW6       30.30F WCI  19
LACON*         PTCLDY    24  20  83 CALM      30.29F
LINCOLN*       CLOUDY    29  24  81 S3        30.33F
SPRINGFIELD    MOCLDY    28  21  75 SW6       30.32F WCI  22
TAYLORVILLE    MOCLDY    27  23  86 S6        30.33F WCI  20
$$

ILZ033-039-045-046-055>057-062-063-311100-
EAST-CENTRAL ILLINOIS

CITY           SKY/WX    TMP DP  RH WIND       PRES   REMARKS
CHAMPAIGN      MOCLDY    26  21  81 S7        30.32F WCI  18
DANVILLE*      PTCLDY    22  17  83 SW5       30.30S WCI  15
RANTOUL*       CLEAR     26  22  84 SW3       30.32S
MATTOON        CLOUDY    26  19  74 S8        30.32F WCI  18
PARIS*         PTCLDY    23  19  86 S3        30.34F
$$

ILZ079-100>102-311100-
SOUTHWEST ILLINOIS

CITY           SKY/WX    TMP DP  RH WIND       PRES   REMARKS
ALTON          MOCLDY    28  21  76 S5        30.35F WCI  23
BELLEVILLE     MOCLDY    26  25  96 S2        30.36S
CAHOKIA*       MOCLDY    30  23  75 S3        30.36S
SPARTA*        CLOUDY    29  22  73 S3        30.37F
$$

ILZ064>066-069>071-074>076-080>082-084>086-088>090-092>094-311100-
SOUTH-CENTRAL ILLINOIS

CITY           SKY/WX    TMP DP  RH WIND       PRES   REMARKS
CARBONDALE     CLOUDY    25  21  85 CALM      30.38F
CAIRO*         PTCLDY    29  25  85 CALM      30.38F
EFFINGHAM*     PTCLDY    25  18  75 SE3       30.36F
MARION         CLOUDY    30  23  74 CALM      30.38F
MT. VERNON     MOCLDY    21  16  79 CALM      30.37F
CENTRALIA*     MOCLDY    26  22  83 SE3       30.36F
SALEM*         MOCLDY    29  22  74 CALM      30.36F
METROPOLIS*    PTCLDY    25  24  96 CALM      30.38F
$$

ILZ067-068-072-073-078-083-087-091-311100-
SOUTHEAST ILLINOIS

CITY           SKY/WX    TMP DP  RH WIND       PRES   REMARKS
LAWRENCEVILLE  CLEAR     21  19  92 SE3       30.38F
FLORA*         CLEAR     24  22  93 S3        30.37F
FAIRFIELD*     MOCLDY    25  22  90 CALM      30.37F
HARRISBURG*    MOCLDY    25  24  96 CALM      30.40S
ROBINSON*      CLEAR     19  18  96 CALM      30.39F
CARMI*         MOCLDY    25  25  97 CALM      30.39S
$$

ABBREVIATIONS USED IN REMARKS
   TC - TEMPERATURE IN CELSIUS
  WCI - WIND CHILL INDEX
   HX - HEAT INDEX
  VSB - VISIBILITY
$$




USA.gov is the U.S. government's official web portal to all federal, state and local government web resources and services.